EW5196 Weather Reports


time (UTC)temp
F
wind
direction
speed
knots
gust
knots
rain 1hr
in
rain 24hr
in
rain mn
in
humidity
%
barometer
mb
20260502203100 61 158 2.6 2.6 0.00 0.04 0.04 39 1013.2
20260502202555 61 177 2.6 4.3 0.00 0.04 0.04 38 1013.3
20260502202054 62 184 1.7 6.1 0.00 0.04 0.04 35 1013.3
20260502201550 62 119 1.7 3.5 0.00 0.04 0.04 37 1013.4
20260502201047 61 166 0.9 2.6 0.00 0.04 0.04 40 1013.3
20260502200542 61 152 1.7 2.6 0.00 0.04 0.04 36 1013.4
20260502200040 61 184 1.7 7.0 0.00 0.04 0.04 37 1013.3
20260502195538 61 164 2.6 3.5 0.00 0.04 0.04 39 1013.3
20260502195033 61 164 8.7 8.7 0.00 0.04 0.04 37 1013.1
20260502194530 61 258 0.0 4.3 0.00 0.04 0.04 39 1013.5
20260502194026 60 198 0.9 4.3 0.00 0.04 0.04 40 1013.4
20260502193524 61 164 3.5 4.3 0.00 0.04 0.04 38 1013.6
20260502193021 60 188 2.6 3.5 0.00 0.04 0.04 38 1013.6
20260502192516 61 187 0.9 2.6 0.00 0.04 0.04 37 1013.8
20260502192014 61 143 1.7 3.5 0.00 0.04 0.04 37 1013.6
20260502191510 61 214 0.0 2.6 0.00 0.04 0.04 38 1013.8
20260502191008 60 140 2.6 3.5 0.00 0.04 0.04 37 1014.0
20260502190505 61 137 1.7 2.6 0.00 0.04 0.04 36 1013.9
20260502190002 61 171 0.0 4.3 0.00 0.04 0.04 37 1014.0
20260502185457 60 119 2.6 6.1 0.00 0.04 0.04 37 1014.0
20260502184954 61 249 1.7 2.6 0.00 0.04 0.04 38 1014.1
20260502184449 61 206 2.6 3.5 0.00 0.04 0.04 38 1014.4
20260502183947 61 184 3.5 5.2 0.00 0.04 0.04 38 1014.3
20260502183443 61 187 2.6 5.2 0.00 0.04 0.04 39 1014.2
20260502182938 60 153 1.7 3.5 0.00 0.04 0.04 39 1014.2
20260502182434 60 226 3.5 8.7 0.00 0.04 0.04 37 1014.4
20260502181930 60 109 2.6 6.1 0.00 0.04 0.04 37 1014.4
20260502181428 60 166 0.9 2.6 0.00 0.04 0.04 39 1014.7
20260502180926 60 166 2.6 3.5 0.00 0.04 0.04 38 1014.6
20260502180423 59 126 3.5 7.0 0.00 0.04 0.04 40 1014.6
20260502170342 57 152 2.6 3.5 0.26 0.04 0.04 43 1016.0
20260502164330 57 127 1.7 2.6 0.00 0.00 0.00 46 1015.9
20260502163826 57 158 1.7 1.7 0.00 0.00 0.00 45 1015.8
20260502163322 57 123 0.0 2.6 0.00 0.00 0.00 44 1015.9
20260502162820 56 177 0.0 2.6 0.00 0.00 0.00 44 1015.9
20260502162316 56 161 2.6 2.6 0.00 0.00 0.00 43 1015.8
20260502161813 56 114 0.0 2.6 0.00 0.00 0.00 44 1016.1
20260502161303 56 151 1.7 1.7 0.00 0.00 0.00 45 1016.1
20260502160801 56 141 2.6 3.5 0.00 0.00 0.00 43 1016.4
20260502160300 56 111 0.9 3.5 0.00 0.00 0.00 43 1016.1
20260502152229 55 164 1.7 2.6 0.00 0.00 0.00 47 1016.6
20260502151727 55 161 0.9 2.6 0.00 0.00 0.00 48 1016.6
20260502151224 55 136 2.6 2.6 0.00 0.00 0.00 48 1016.2
20260502150721 55 123 2.6 3.5 0.00 0.00 0.00 50 1016.3
20260502150218 54 169 1.7 3.5 0.00 0.00 0.00 49 1016.2
20260502130606 53 239 0.9 5.2 0.00 0.00 0.00 60 1015.7
20260502130104 53 188 0.9 2.6 0.00 0.00 0.00 63 1015.8
20260502123549 52 152 2.6 5.2 0.00 0.00 0.00 65 1015.3
20260502123045 52 153 1.7 1.7 0.00 0.00 0.00 68 1015.4
20260502122542 52 147 2.6 5.2 0.00 0.00 0.00 68 1015.5
20260502122040 52 175 1.7 4.3 0.00 0.00 0.00 69 1015.4
20260502121537 52 144 1.7 2.6 0.00 0.00 0.00 70 1015.6
20260502121035 52 255 0.0 3.5 0.00 0.00 0.00 71 1015.3
20260502120531 52 171 0.9 2.6 0.00 0.00 0.00 71 1015.3
20260502115526 51 137 2.6 2.6 0.00 0.00 0.00 72 1015.1
20260502115021 51 143 0.9 2.6 0.00 0.00 0.00 73 1015.2
20260502114518 51 129 1.7 5.2 0.00 0.00 0.00 73 1015.1
20260502114015 51 149 1.7 2.6 0.00 0.00 0.00 75 1015.4
20260502113513 51 163 0.9 3.5 0.00 0.00 0.00 77 1015.1
20260502113011 50 139 0.9 2.6 0.00 0.00 0.00 81 1015.2
20260502112509 50 140 2.6 2.6 0.00 0.00 0.00 84 1015.3
20260502112006 49 142 0.9 2.6 0.00 0.00 0.00 89 1015.3
20260502111503 49 140 0.9 1.7 0.00 0.00 0.00 91 1015.2
20260502111000 48 150 0.9 1.7 0.00 0.00 0.00 92 1015.5
20260502110458 48 148 1.7 1.7 0.00 0.00 0.00 93 1015.4
20260502105955 48 152 1.7 1.7 0.00 0.00 0.00 93 1015.3
20260502105453 48 157 1.7 1.7 0.00 0.00 0.00 94 1015.3
20260502104950 48 152 0.9 1.7 0.00 0.00 0.00 93 1015.3
20260502104447 48 154 0.9 1.7 0.00 0.00 0.00 93 1015.3
20260502103944 48 161 0.9 1.7 0.00 0.00 0.00 94 1015.2
20260502103442 48 148 0.9 1.7 0.00 0.00 0.00 94 1015.0
20260502102938 48 157 1.7 1.7 0.00 0.00 0.00 94 1015.2
20260502102436 48 151 1.7 1.7 0.00 0.00 0.00 94 1015.2
20260502101932 48 154 0.9 1.7 0.00 0.00 0.00 94 1015.0
20260502101431 48 151 1.7 1.7 0.00 0.00 0.00 94 1015.0
20260502100929 48 145 0.9 1.7 0.00 0.00 0.00 94 1014.8
20260502100428 47 137 0.9 1.7 0.00 0.00 0.00 94 1014.6
20260502091402 48 154 0.9 1.7 0.00 0.00 0.00 94 1014.6
20260502090859 48 157 0.9 1.7 0.00 0.00 0.00 93 1014.5
20260502090355 48 143 0.9 1.7 0.00 0.00 0.00 93 1014.6
20260502071251 50 165 0.9 1.7 0.00 0.00 0.00 87 1014.0
20260502070749 50 147 1.7 1.7 0.00 0.00 0.00 87 1013.9
20260502070246 51 150 0.9 1.7 0.00 0.00 0.00 86 1014.0
20260502065745 51 148 1.7 1.7 0.00 0.00 0.00 85 1014.1
20260502065242 51 138 0.9 1.7 0.00 0.00 0.00 85 1013.9
20260502064741 51 155 1.7 1.7 0.00 0.00 0.00 85 1014.0
20260502064238 51 137 0.9 1.7 0.00 0.00 0.00 84 1014.0
20260502063735 51 152 1.7 1.7 0.00 0.00 0.00 85 1013.9
20260502063233 52 151 1.7 1.7 0.00 0.00 0.00 84 1013.9
20260502062730 52 151 1.7 1.7 0.00 0.00 0.00 83 1013.9
20260502062228 52 152 0.9 1.7 0.00 0.00 0.00 83 1014.0
20260502061726 52 160 1.7 2.6 0.00 0.00 0.00 81 1013.8
20260502061223 53 150 0.9 1.7 0.00 0.00 0.00 80 1014.2
20260502060718 53 146 1.7 1.7 0.00 0.00 0.00 79 1014.0
20260502060214 53 145 1.7 1.7 0.00 0.00 0.00 78 1014.0
20260502055713 53 154 1.7 2.6 0.00 0.00 0.00 78 1014.1
20260502055210 53 146 1.7 1.7 0.00 0.00 0.00 78 1014.3
20260502054709 53 141 1.7 1.7 0.00 0.00 0.00 78 1014.4
20260502054206 53 147 1.7 1.7 0.00 0.00 0.00 79 1014.5
20260502053703 54 146 1.7 1.7 0.00 0.00 0.00 79 1014.5
20260502053201 54 142 0.9 1.7 0.00 0.00 0.00 79 1014.4
20260502052659 54 158 1.7 1.7 0.00 0.00 0.00 76 1014.4
20260502052157 54 154 1.7 1.7 0.00 0.00 0.00 76 1014.1
20260502051654 55 155 1.7 1.7 0.00 0.00 0.00 76 1014.2
20260502051152 55 155 1.7 1.7 0.00 0.00 0.00 75 1014.1
20260502050642 55 161 1.7 2.6 0.00 0.00 0.00 75 1014.1
20260502050139 55 162 1.7 2.6 0.00 0.00 0.00 75 1014.2
20260502045636 55 166 1.7 2.6 0.00 0.00 0.00 74 1014.1
20260502045133 55 149 1.7 1.7 0.00 0.00 0.00 73 1014.3
20260502044629 55 154 1.7 2.6 0.00 0.00 0.00 73 1014.2
20260502044126 55 164 1.7 2.6 0.00 0.00 0.00 73 1014.4
20260502043624 55 169 1.7 2.6 0.00 0.00 0.00 72 1014.3
20260502043115 55 165 2.6 2.6 0.00 0.00 0.00 73 1014.4
20260502042614 55 144 1.7 2.6 0.00 0.00 0.00 72 1014.6
20260502042112 55 145 1.7 2.6 0.00 0.00 0.00 72 1014.5
20260502041610 55 142 1.7 2.6 0.00 0.00 0.00 71 1014.5
20260502041107 56 150 1.7 2.6 0.00 0.00 0.00 71 1014.4
20260502040603 56 155 2.6 2.6 0.00 0.00 0.00 71 1014.4
20260502040101 56 142 1.7 2.6 0.00 0.00 0.00 71 1014.2
20260502035556 56 166 2.6 2.6 0.00 0.00 0.00 70 1014.4
20260502035054 56 171 2.6 2.6 0.00 0.00 0.00 70 1014.4
20260502034551 56 137 1.7 2.6 0.00 0.00 0.00 69 1014.1
20260502034050 57 169 1.7 2.6 0.00 0.00 0.00 68 1014.2
20260502033548 57 159 1.7 2.6 0.00 0.00 0.00 68 1014.2
20260502033045 57 165 1.7 2.6 0.00 0.00 0.00 68 1014.3
20260502032541 57 173 0.9 2.6 0.00 0.00 0.00 68 1014.2
20260502032037 57 175 1.7 2.6 0.00 0.00 0.00 67 1014.1
20260502031536 57 168 1.7 2.6 0.00 0.00 0.00 67 1013.8
20260502031033 57 159 1.7 1.7 0.00 0.00 0.00 66 1014.1
20260502030532 57 167 1.7 2.6 0.00 0.00 0.00 65 1013.9
20260502030029 57 170 2.6 2.6 0.00 0.00 0.00 65 1013.8
20260502025526 57 156 1.7 2.6 0.00 0.00 0.00 67 1013.6
20260502025025 58 168 1.7 1.7 0.00 0.00 0.00 65 1013.8
20260502024521 58 161 1.7 1.7 0.00 0.00 0.00 65 1013.7
20260502024020 58 168 2.6 2.6 0.00 0.00 0.00 64 1013.8
20260502023517 58 138 1.7 1.7 0.00 0.00 0.00 64 1013.7
20260502023014 58 169 2.6 2.6 0.00 0.00 0.00 64 1013.6
20260502022511 58 164 1.7 2.6 0.00 0.00 0.00 65 1013.8
20260502022008 57 157 1.7 2.6 0.00 0.00 0.00 66 1014.0
20260502021505 57 169 1.7 2.6 0.00 0.00 0.00 67 1014.0
20260502021002 57 170 1.7 2.6 0.00 0.00 0.00 69 1013.9
20260502020500 57 168 1.7 1.7 0.00 0.00 0.00 67 1013.8
20260502015956 57 156 1.7 1.7 0.00 0.00 0.00 65 1013.9
20260502015455 56 139 3.5 3.5 0.00 0.00 0.00 65 1013.7
20260502014950 56 144 1.7 1.7 0.00 0.00 0.00 69 1013.8
20260502014448 56 161 1.7 1.7 0.00 0.00 0.00 74 1013.7
20260502013944 56 150 1.7 1.7 0.00 0.00 0.00 73 1013.8
20260502013440 57 150 1.7 1.7 0.00 0.00 0.00 73 1013.8
20260502012936 57 151 1.7 1.7 0.00 0.00 0.00 71 1013.4
20260502012434 57 153 1.7 1.7 0.00 0.00 0.00 68 1013.4
20260502011932 58 156 1.7 1.7 0.00 0.00 0.00 68 1013.2
20260502011427 58 157 1.7 1.7 0.00 0.00 0.00 66 1013.3
20260502010925 58 161 1.7 1.7 0.00 0.00 0.00 67 1013.4
20260502010421 59 169 1.7 2.6 0.00 0.00 0.00 63 1013.4
20260502005917 59 153 1.7 1.7 0.00 0.00 0.00 61 1013.3
20260502005416 59 139 1.7 1.7 0.00 0.00 0.00 54 1013.1
20260502004914 60 149 1.7 1.7 0.00 0.00 0.00 54 1013.2
20260502004409 60 147 1.7 1.7 0.00 0.00 0.00 53 1012.8
20260502003907 60 151 1.7 1.7 0.00 0.00 0.00 53 1012.7
20260502003404 61 151 1.7 2.6 0.00 0.00 0.00 51 1012.6
20260502002900 61 166 2.6 2.6 0.00 0.00 0.00 49 1012.5
20260502002358 61 164 1.7 2.6 0.00 0.00 0.00 49 1012.5
20260502001854 62 160 2.6 2.6 0.00 0.00 0.00 47 1012.3
20260502001352 62 166 1.7 1.7 0.00 0.00 0.00 48 1012.6
20260502000849 62 166 1.7 2.6 0.00 0.00 0.00 50 1012.6
20260502000348 63 166 1.7 2.6 0.00 0.00 0.00 46 1012.7
20260501235843 63 160 1.7 1.7 0.00 0.00 0.00 49 1012.6
20260501235339 64 173 1.7 2.6 0.00 0.00 0.00 45 1012.8
20260501234834 64 157 1.7 2.6 0.00 0.00 0.00 44 1012.3
20260501234332 64 177 2.6 2.6 0.00 0.00 0.00 43 1012.5
20260501233830 64 175 1.7 2.6 0.00 0.00 0.00 43 1012.5
20260501233327 65 161 2.6 2.6 0.00 0.00 0.00 44 1012.5
20260501232823 65 156 1.7 2.6 0.00 0.00 0.00 43 1012.3
20260501232320 65 164 1.7 1.7 0.00 0.00 0.00 42 1012.3
20260501231818 66 160 1.7 2.6 0.00 0.00 0.00 41 1012.1
20260501231316 66 180 1.7 2.6 0.00 0.00 0.00 39 1012.2
20260501230814 66 182 2.6 2.6 0.00 0.00 0.00 38 1012.1
20260501230312 66 174 1.7 3.5 0.00 0.00 0.00 37 1012.2
20260501225809 66 136 1.7 3.5 0.00 0.00 0.00 38 1012.3
20260501225307 67 170 2.6 3.5 0.00 0.00 0.00 37 1012.2
20260501224803 67 183 1.7 3.5 0.00 0.00 0.00 37 1012.3
20260501224301 67 173 1.7 2.6 0.00 0.00 0.00 36 1012.5
20260501223756 67 173 2.6 2.6 0.00 0.00 0.00 38 1012.4
20260501223253 68 175 1.7 2.6 0.00 0.00 0.00 38 1012.7
20260501222749 68 171 1.7 2.6 0.00 0.00 0.00 36 1012.5
20260501222246 69 166 1.7 2.6 0.00 0.00 0.00 36 1012.6
20260501221743 69 170 4.3 4.3 0.00 0.00 0.00 34 1012.5
20260501221240 70 163 2.6 4.3 0.00 0.00 0.00 34 1012.6
20260501220738 70 165 2.6 2.6 0.00 0.00 0.00 33 1012.6
20260501220235 70 186 1.7 2.6 0.00 0.00 0.00 33 1012.7
20260501215732 70 188 2.6 2.6 0.00 0.00 0.00 35 1012.6
20260501215227 70 187 2.6 2.6 0.00 0.00 0.00 32 1012.6
20260501214723 69 165 1.7 2.6 0.00 0.00 0.00 32 1012.7
20260501214219 69 182 2.6 3.5 0.00 0.00 0.00 33 1012.8
20260501213715 69 174 3.5 4.3 0.00 0.00 0.00 33 1012.7
20260501213212 69 164 2.6 3.5 0.00 0.00 0.00 34 1012.6
20260501212708 69 177 2.6 2.6 0.00 0.00 0.00 33 1012.4
20260501212204 69 180 2.6 2.6 0.00 0.00 0.00 33 1012.6
20260501211701 70 253 1.7 1.7 0.00 0.00 0.00 33 1012.8
20260501211159 70 171 2.6 2.6 0.00 0.00 0.00 34 1012.8
20260501210656 69 183 1.7 2.6 0.00 0.00 0.00 33 1012.8
20260501210152 69 192 1.7 3.5 0.00 0.00 0.00 33 1012.7
20260501205648 69 159 2.6 3.5 0.00 0.00 0.00 32 1013.0
20260501205146 69 192 2.6 4.3 0.00 0.00 0.00 32 1012.8
20260501204642 69 164 2.6 4.3 0.00 0.00 0.00 34 1012.9
20260501204138 69 197 2.6 3.5 0.00 0.00 0.00 34 1012.9
20260501203635 69 192 2.6 3.5 0.00 0.00 0.00 33 1012.9